Location: Newark
(48.6461°N, 4.3644°W)
Time: 04:04:27
(UTC+00:00)

A-11 Canister half - Visible Passes

Search period start: 27 January 2020 00:00
Search period end: 06 February 2020 00:00
Orbit: 1517 x 1683 km, 47.2° (Epoch: 26 January)

Date Brightness Start Highest point End Pass type
(mag) Time Alt. Az. Time Alt. Az. Time Alt. Az.
27 Jan 10.7 02:21:26 19° E 02:21:26 19° E 02:23:34 10° E visible
27 Jan 8.9 04:19:38 65° S 04:19:38 65° S 04:28:07 10° ESE visible
27 Jan 9.8 06:17:50 20° W 06:22:41 31° SW 06:30:26 10° SSE visible
28 Jan 11.0 01:59:55 13° E 01:59:55 13° E 02:00:40 10° E visible
28 Jan 9.2 03:58:08 55° SSE 03:58:08 55° SSE 04:05:15 10° ESE visible
28 Jan 9.7 05:56:21 25° WSW 05:59:52 32° SW 06:07:46 10° SSE visible
29 Jan 9.6 03:36:41 42° SE 03:36:41 42° SE 03:42:23 10° ESE visible
29 Jan 9.5 05:34:54 31° WSW 05:37:03 34° SW 05:45:05 10° SSE visible
30 Jan 10.1 03:15:17 31° ESE 03:15:17 31° ESE 03:19:31 10° ESE visible
30 Jan 9.4 05:13:31 35° SW 05:14:14 36° SW 05:22:23 10° SSE visible
31 Jan 10.5 02:53:56 22° ESE 02:53:56 22° ESE 02:56:38 10° ESE visible
31 Jan 9.5 04:52:10 37° SSW 04:52:10 37° SSW 04:59:40 10° SSE visible
31 Jan 10.7 20:06:13 10° SSE 20:07:32 13° SSE 20:07:32 13° SSE visible
01 Feb 10.9 02:32:39 14° ESE 02:32:39 14° ESE 02:33:46 10° ESE visible
01 Feb 9.7 04:30:53 35° S 04:30:53 35° S 04:36:57 10° SSE visible
01 Feb 10.5 06:29:07 10° WSW 06:31:19 11° WSW 06:33:40 10° SW visible
01 Feb 10.5 19:43:47 10° SSE 19:46:31 15° SSE 19:46:31 15° SSE visible
01 Feb 10.8 21:43:30 10° SW 21:44:46 15° SW 21:44:46 15° SW visible
02 Feb 10.0 04:09:39 29° S 04:09:39 29° S 04:14:13 10° SSE visible
02 Feb 10.4 06:07:54 12° WSW 06:08:34 12° SW 06:11:53 10° SW visible
02 Feb 10.4 19:21:26 10° SSE 19:25:30 16° SE 19:25:30 16° SE visible
02 Feb 10.4 21:20:42 10° SW 21:23:45 22° SSW 21:23:45 22° SSW visible
03 Feb 10.3 03:48:29 22° SSE 03:48:29 22° SSE 03:51:28 10° SSE visible
03 Feb 10.4 05:46:44 13° SW 05:46:44 13° SW 05:49:50 10° SSW visible
03 Feb 10.4 18:59:08 10° SSE 19:03:49 15° SE 19:04:27 15° ESE visible
03 Feb 10.0 20:57:53 10° SSW 21:02:41 30° SSW 21:02:41 30° SSW visible
04 Feb 10.7 03:27:22 15° SSE 03:27:22 15° SSE 03:28:42 10° SE visible
04 Feb 10.5 05:25:36 13° SW 05:25:36 13° SW 05:27:38 10° SSW visible
04 Feb 10.4 18:36:56 10° SSE 18:41:02 13° SE 18:43:22 12° ESE visible
04 Feb 9.6 20:35:07 10° SSW 20:41:36 37° S 20:41:36 37° S visible
04 Feb 10.9 22:38:38 10° WSW 22:39:51 15° WSW 22:39:51 15° WSW visible
05 Feb 10.6 05:04:32 12° SSW 05:04:32 12° SSW 05:05:21 10° SSW visible
05 Feb 10.5 18:14:54 10° SE 18:18:15 12° ESE 18:21:35 10° ESE visible
05 Feb 9.4 20:12:20 10° SSW 20:20:28 40° SSE 20:20:28 40° SSE visible
05 Feb 10.5 22:15:43 10° WSW 22:18:43 23° WSW 22:18:43 23° WSW visible
